TimeCST,TemperatureF,Dew PointF,Humidity,Sea Level PressureIn,VisibilityMPH,Wind Direction,Wind SpeedMPH,Gust SpeedMPH,PrecipitationIn,Events,Conditions,WindDirDegrees,DateUTC
12:52 AM,32.0,28.9,88,30.16,7.0,North,3.5,-,N/A,,Overcast,350,2013-01-17 06:52:00
1:52 AM,32.0,28.9,88,30.16,7.0,North,3.5,-,N/A,,Mostly Cloudy,350,2013-01-17 07:52:00
2:52 AM,32.0,30.0,92,30.14,5.0,Calm,Calm,-,N/A,,Mostly Cloudy,0,2013-01-17 08:52:00
3:52 AM,32.0,28.9,88,30.14,6.0,North,4.6,-,N/A,,Clear,360,2013-01-17 09:52:00
4:52 AM,30.9,28.0,89,30.13,7.0,North,5.8,-,N/A,,Partly Cloudy,350,2013-01-17 10:52:00
5:52 AM,30.9,26.1,82,30.14,9.0,Calm,Calm,-,N/A,,Overcast,0,2013-01-17 11:52:00
6:52 AM,30.9,26.1,82,30.15,9.0,North,8.1,-,N/A,,Mostly Cloudy,360,2013-01-17 12:52:00
7:52 AM,33.1,27.0,78,30.18,8.0,North,9.2,-,N/A,,Overcast,360,2013-01-17 13:52:00
8:52 AM,34.0,27.0,75,30.18,9.0,North,13.8,-,N/A,,Overcast,10,2013-01-17 14:52:00
9:52 AM,37.9,28.9,70,30.20,10.0,NNE,12.7,21.9,N/A,,Clear,30,2013-01-17 15:52:00
10:52 AM,39.0,30.9,73,30.17,10.0,North,8.1,-,N/A,,Clear,360,2013-01-17 16:52:00
11:52 AM,39.9,30.9,70,30.15,10.0,NNE,11.5,-,N/A,,Scattered Clouds,20,2013-01-17 17:52:00
12:52 PM,44.1,33.1,65,30.14,10.0,NNE,15.0,-,N/A,,Clear,20,2013-01-17 18:52:00
1:52 PM,45.0,33.1,63,30.14,10.0,North,19.6,26.5,N/A,,Scattered Clouds,360,2013-01-17 19:52:00
2:52 PM,46.9,34.0,61,30.17,10.0,NNW,21.9,28.8,N/A,,Mostly Cloudy,340,2013-01-17 20:52:00
3:52 PM,45.0,34.0,65,30.23,10.0,NNW,19.6,-,N/A,,Scattered Clouds,340,2013-01-17 21:52:00
4:52 PM,42.1,32.0,67,30.28,10.0,NNW,11.5,-,N/A,,Clear,340,2013-01-17 22:52:00
5:52 PM,39.9,32.0,73,30.32,10.0,NNW,13.8,-,N/A,,Partly Cloudy,340,2013-01-17 23:52:00
6:52 PM,37.0,28.9,73,30.37,10.0,North,13.8,-,N/A,,Clear,350,2013-01-18 00:52:00
7:52 PM,34.0,28.0,79,30.41,10.0,NNW,10.4,-,N/A,,Clear,340,2013-01-18 01:52:00
8:52 PM,33.1,27.0,78,30.44,10.0,NNW,10.4,-,N/A,,Clear,330,2013-01-18 02:52:00
9:52 PM,32.0,26.1,79,30.46,10.0,NNW,8.1,-,N/A,,Clear,330,2013-01-18 03:52:00
10:52 PM,30.9,25.0,79,30.46,10.0,NNW,9.2,-,N/A,,Clear,340,2013-01-18 04:52:00
11:52 PM,28.9,24.1,82,30.47,10.0,North,4.6,-,N/A,,Clear,350,2013-01-18 05:52:00